SL-16 DEB, 22618

Orbit data source: Space-Track

SL-16 DEB, 22618 is space debris in LEO originally from a launch on Fri, 26 Mar 1993 UTC launched from the Tyuratam Missile And Space Complex (TTMTR). Debris objects in space refer to the collection of defunct objects orbiting the Earth. Examples of debris include non-operational satellites, rocket bodies, and fragments generated from explosions, collisions, or faulty payload assembly.

Loading next visibility...
Identifier
22618, 1993-016AC
Orbit
LEO
Country
Flag of CISCIS
Related business
Manufacturer
Unknown
Mission
Spacecraft
Bus & Motor
Unknown
Mass
Unknown
Launch date (UTC)
1993-03-26 (32 years ago)
Launch vehicle
Unknown
Launch site
Tyuratam Missile And Space Complex (TTMTR)
Object type
Payload
Rocket body
Debris
Shape & HBR
Unknown
Radar Cross Section
Small (<0.1 m²)

Expand to show TLE details & history
Last TLE update: 1 day ago

TLE from 1 day ago
0 SL-16 DEB
1 22618U 93016AC  25258.06898874  .00000175  00000-0  18130-3 0  9999
2 22618  70.9919 129.5991 0157294 336.8870  22.5211 13.83379278636431
Epoch: 2025-09-15T01:39Z
TLE epoch observation values (Epoch: 2025-09-15T01:39:20.627Z)
Latitude
0.00002°
Longitude
110.48422°
Altitude
848.043 km
Speed
7.483 km/s
True Right ascension
08h 38m 23s
True Declination
0° 00' 00"
Sunlit
Object was in daylight at epoch
Visualization orbit readout
Latitude
Unknown
Longitude
Unknown
Altitude
Unknown
Speed
Unknown
Apparent Right ascension
Unknown
Apparent Declination
Unknown
Sunlit
N/A
Visualization observer readout
Local Sidereal Time
19:42:11
Azimuth
Unknown
Elevation
Unknown
Doppler factor
Unknown
Orbital elements
Apogee altitude
1,065.147 km
Perigee altitude
834.616 km
Semi-major axis
7,328.018 km
Eccentricity
0.01573
Inclination
70.9919°
RAAN
129.5991°
Arg. of periapsis
336.887°
True anomaly
23.22423°
Mean anomaly
22.5211°
Eccentric anomaly
22.87137°
Mean motion
3.4599 °/min
Orbital period
104.05 mins
BSTAR
0.0001813
Loading maneuver chart data...
Computing Atmospheric mass density...
Loading historical data...
Loading historical data...
Loading historical data...
Loading historical data...
Loading historical data...
Loading historical data...
Loading historical data...

Documentation

Showing up to 5 results
|